Time,TemperatureF,DewpointF,PressureIn,WindDirection,WindDirectionDegrees,WindSpeedMPH,WindSpeedGustMPH,Humidity,HourlyPrecipIn,Conditions,Clouds,dailyrainin,SoftwareType,DateUTC
2013-04-08 00:03:00,59.0,45.0,-100.00,NW,305,0.0,1.0,60,0.00,,,-99.99,,2013-04-08 04:03:00,
2013-04-08 00:12:00,59.0,45.0,-100.00,SSE,160,3.0,6.0,60,0.00,,,-99.99,,2013-04-08 04:12:00,
2013-04-08 00:23:00,59.0,45.0,-100.00,SSE,160,3.0,6.0,60,0.00,,,-99.99,,2013-04-08 04:23:00,
2013-04-08 00:33:00,58.0,45.0,-100.00,South,175,2.0,4.0,62,0.00,,,-99.99,,2013-04-08 04:33:00,
2013-04-08 00:44:00,59.0,45.0,-100.00,WNW,295,1.0,1.0,61,0.00,,,-99.99,,2013-04-08 04:44:00,
2013-04-08 00:52:00,59.0,45.0,-100.00,WNW,295,1.0,1.0,61,0.00,,,-99.99,,2013-04-08 04:52:00,
2013-04-08 01:02:00,58.0,45.0,-100.00,SSE,155,1.0,2.0,62,0.00,,,-99.99,,2013-04-08 05:02:00,
2013-04-08 01:12:00,58.0,45.0,-100.00,South,170,1.0,1.0,62,0.00,,,-99.99,,2013-04-08 05:12:00,
2013-04-08 01:22:00,58.0,45.0,-100.00,South,170,1.0,1.0,62,0.00,,,-99.99,,2013-04-08 05:22:00,
2013-04-08 01:32:00,56.0,45.0,-100.00,SSW,205,1.0,1.0,66,0.00,,,-99.99,,2013-04-08 05:32:00,
2013-04-08 01:42:00,56.0,45.0,-100.00,SW,220,0.0,1.0,67,0.00,,,-99.99,,2013-04-08 05:42:00,
2013-04-08 01:52:00,56.0,45.0,-100.00,SW,220,0.0,1.0,67,0.00,,,-99.99,,2013-04-08 05:52:00,
2013-04-08 02:02:00,55.0,45.0,-100.00,SSE,160,0.0,1.0,68,0.00,,,-99.99,,2013-04-08 06:02:00,
2013-04-08 02:12:00,55.0,45.0,-100.00,SSW,210,0.0,1.0,69,0.00,,,-99.99,,2013-04-08 06:12:00,
2013-04-08 02:22:00,55.0,45.0,-100.00,SSW,210,0.0,1.0,69,0.00,,,-99.99,,2013-04-08 06:22:00,
2013-04-08 02:32:00,55.0,45.0,-100.00,WNW,285,2.0,2.0,69,0.00,,,-99.99,,2013-04-08 06:32:00,
2013-04-08 02:42:00,55.0,45.0,-100.00,SW,220,0.0,0.0,70,0.00,,,-99.99,,2013-04-08 06:42:00,
2013-04-08 02:52:00,55.0,45.0,-100.00,SW,220,0.0,0.0,70,0.00,,,-99.99,,2013-04-08 06:52:00,
2013-04-08 03:02:00,55.0,46.0,-100.00,WSW,250,1.0,1.0,70,0.00,,,-99.99,,2013-04-08 07:02:00,
2013-04-08 03:12:00,57.0,46.0,-100.00,NNW,335,1.0,3.0,67,0.00,,,-99.99,,2013-04-08 07:12:00,
2013-04-08 03:22:00,57.0,46.0,-100.00,NNW,335,1.0,3.0,67,0.00,,,-99.99,,2013-04-08 07:22:00,
2013-04-08 03:33:00,57.0,46.0,-100.00,NNW,335,1.0,3.0,67,0.00,,,-99.99,,2013-04-08 07:33:00,
2013-04-08 03:42:00,56.0,47.0,-100.00,West,270,1.0,2.0,71,0.00,,,-99.99,,2013-04-08 07:42:00,
2013-04-08 03:52:00,56.0,47.0,-100.00,West,270,1.0,2.0,71,0.00,,,-99.99,,2013-04-08 07:52:00,
2013-04-08 04:02:00,56.0,46.0,-100.00,SW,215,0.0,0.0,70,0.00,,,-99.99,,2013-04-08 08:02:00,
2013-04-08 04:12:00,56.0,46.0,-100.00,SW,215,0.0,0.0,70,0.00,,,-99.99,,2013-04-08 08:12:00,
2013-04-08 04:22:00,56.0,46.0,-100.00,SW,215,0.0,0.0,70,0.00,,,-99.99,,2013-04-08 08:22:00,
2013-04-08 04:33:00,55.0,46.0,-100.00,WNW,285,1.0,2.0,73,0.00,,,-99.99,,2013-04-08 08:33:00,
2013-04-08 04:42:00,55.0,46.0,-100.00,WNW,285,0.0,0.0,72,0.00,,,-99.99,,2013-04-08 08:42:00,
2013-04-08 04:52:00,55.0,46.0,-100.00,WNW,285,0.0,0.0,72,0.00,,,-99.99,,2013-04-08 08:52:00,
2013-04-08 05:02:00,56.0,46.0,-100.00,NW,325,0.0,0.0,70,0.00,,,-99.99,,2013-04-08 09:02:00,
2013-04-08 05:12:00,55.0,45.0,-100.00,SSE,165,2.0,2.0,70,0.00,,,-99.99,,2013-04-08 09:12:00,
2013-04-08 05:22:00,55.0,45.0,-100.00,SSE,165,2.0,2.0,70,0.00,,,-99.99,,2013-04-08 09:22:00,
2013-04-08 05:33:00,54.0,46.0,-100.00,WSW,255,2.0,3.0,74,0.00,,,-99.99,,2013-04-08 09:33:00,
2013-04-08 05:43:00,54.0,46.0,-100.00,WSW,250,1.0,2.0,74,0.00,,,-99.99,,2013-04-08 09:43:00,
2013-04-08 05:53:00,54.0,46.0,-100.00,WSW,250,1.0,2.0,74,0.00,,,-99.99,,2013-04-08 09:53:00,
2013-04-08 06:03:00,54.0,46.0,-100.00,West,265,3.0,4.0,73,0.00,,,-99.99,,2013-04-08 10:03:00,
2013-04-08 06:13:00,56.0,45.0,-100.00,West,280,5.0,7.0,67,0.00,,,-99.99,,2013-04-08 10:13:00,
2013-04-08 06:23:00,56.0,45.0,-100.00,West,280,5.0,7.0,67,0.00,,,-99.99,,2013-04-08 10:23:00,
2013-04-08 06:33:00,53.0,45.0,-100.00,SSW,205,0.0,0.0,74,0.00,,,-99.99,,2013-04-08 10:33:00,
2013-04-08 06:42:00,53.0,46.0,-100.00,West,270,2.0,2.0,75,0.00,,,-99.99,,2013-04-08 10:42:00,
2013-04-08 06:52:00,53.0,46.0,-100.00,West,270,2.0,2.0,75,0.00,,,-99.99,,2013-04-08 10:52:00,
2013-04-08 07:03:00,53.0,45.0,-100.00,NW,315,0.0,0.0,75,0.00,,,-99.99,,2013-04-08 11:03:00,
2013-04-08 07:12:00,53.0,45.0,-100.00,WNW,285,1.0,1.0,75,0.00,,,-99.99,,2013-04-08 11:12:00,
2013-04-08 07:22:00,53.0,45.0,-100.00,WNW,285,1.0,1.0,75,0.00,,,-99.99,,2013-04-08 11:22:00,
2013-04-08 07:32:00,53.0,46.0,-100.00,SW,230,0.0,0.0,75,0.00,,,-99.99,,2013-04-08 11:32:00,
2013-04-08 07:42:00,54.0,46.0,-100.00,SW,225,0.0,0.0,74,0.00,,,-99.99,,2013-04-08 11:42:00,
2013-04-08 07:52:00,54.0,46.0,-100.00,SW,225,0.0,0.0,74,0.00,,,-99.99,,2013-04-08 11:52:00,
2013-04-08 08:03:00,56.0,46.0,-100.00,SSE,150,0.0,0.0,71,0.00,,,-99.99,,2013-04-08 12:03:00,
2013-04-08 08:12:00,57.0,47.0,-100.00,SW,235,0.0,0.0,69,0.00,,,-99.99,,2013-04-08 12:12:00,
2013-04-08 08:23:00,57.0,47.0,-100.00,SW,235,0.0,0.0,69,0.00,,,-99.99,,2013-04-08 12:23:00,
2013-04-08 08:33:00,58.0,47.0,-100.00,South,170,0.0,1.0,66,0.00,,,-99.99,,2013-04-08 12:33:00,
2013-04-08 08:42:00,59.0,47.0,-100.00,NE,50,1.0,2.0,65,0.00,,,-99.99,,2013-04-08 12:42:00,
2013-04-08 08:52:00,59.0,47.0,-100.00,NE,50,1.0,2.0,65,0.00,,,-99.99,,2013-04-08 12:52:00,
2013-04-08 09:03:00,60.0,47.0,-100.00,NNE,30,0.0,0.0,62,0.00,,,-99.99,,2013-04-08 13:03:00,
2013-04-08 09:12:00,62.0,47.0,-100.00,ENE,70,1.0,1.0,58,0.00,,,-99.99,,2013-04-08 13:12:00,
2013-04-08 09:22:00,62.0,47.0,-100.00,ENE,70,1.0,1.0,58,0.00,,,-99.99,,2013-04-08 13:22:00,
2013-04-08 09:32:00,63.0,46.0,-100.00,East,80,1.0,2.0,54,0.00,,,-99.99,,2013-04-08 13:32:00,
2013-04-08 09:42:00,64.0,44.0,-100.00,ESE,105,2.0,3.0,49,0.00,,,-99.99,,2013-04-08 13:42:00,
2013-04-08 09:52:00,64.0,44.0,-100.00,ESE,105,2.0,3.0,49,0.00,,,-99.99,,2013-04-08 13:52:00,
2013-04-08 10:03:00,64.0,46.0,-100.00,ESE,115,4.0,5.0,51,0.00,,,-99.99,,2013-04-08 14:03:00,
2013-04-08 10:12:00,64.0,46.0,-100.00,ESE,115,6.0,6.0,52,0.00,,,-99.99,,2013-04-08 14:12:00,
2013-04-08 10:22:00,64.0,46.0,-100.00,ESE,115,6.0,6.0,52,0.00,,,-99.99,,2013-04-08 14:22:00,
2013-04-08 10:33:00,65.0,45.0,-100.00,ESE,105,4.0,6.0,49,0.00,,,-99.99,,2013-04-08 14:33:00,
2013-04-08 10:42:00,65.0,45.0,-100.00,SE,135,4.0,4.0,49,0.00,,,-99.99,,2013-04-08 14:42:00,
2013-04-08 10:52:00,65.0,45.0,-100.00,SE,135,4.0,4.0,49,0.00,,,-99.99,,2013-04-08 14:52:00,
2013-04-08 11:02:00,66.0,44.0,-100.00,NW,310,1.0,3.0,45,0.00,,,-99.99,,2013-04-08 15:02:00,
2013-04-08 11:12:00,68.0,44.0,-100.00,SW,215,2.0,4.0,41,0.00,,,-99.99,,2013-04-08 15:12:00,
2013-04-08 11:22:00,68.0,44.0,-100.00,SW,215,2.0,4.0,41,0.00,,,-99.99,,2013-04-08 15:22:00,
2013-04-08 11:34:00,70.0,42.0,-100.00,South,190,2.0,4.0,37,0.00,,,-99.99,,2013-04-08 15:34:00,
2013-04-08 11:43:00,71.0,42.0,-100.00,SSW,210,2.0,2.0,35,0.00,,,-99.99,,2013-04-08 15:43:00,
2013-04-08 11:53:00,71.0,42.0,-100.00,SSW,210,2.0,2.0,35,0.00,,,-99.99,,2013-04-08 15:53:00,
2013-04-08 12:03:00,69.0,41.0,-100.00,SSW,205,1.0,4.0,36,0.00,,,-99.99,,2013-04-08 16:03:00,
2013-04-08 12:13:00,69.0,41.0,-100.00,South,185,4.0,6.0,37,0.00,,,-99.99,,2013-04-08 16:13:00,
2013-04-08 12:23:00,69.0,41.0,-100.00,South,185,4.0,6.0,37,0.00,,,-99.99,,2013-04-08 16:23:00,
2013-04-08 12:32:00,69.0,41.0,-100.00,SSW,195,1.0,2.0,36,0.00,,,-99.99,,2013-04-08 16:32:00,
2013-04-08 12:42:00,69.0,41.0,-100.00,SSW,195,1.0,2.0,36,0.00,,,-99.99,,2013-04-08 16:42:00,
2013-04-08 12:53:00,69.0,40.0,-100.00,South,170,2.0,4.0,35,0.00,,,-99.99,,2013-04-08 16:53:00,
2013-04-08 13:03:00,69.0,40.0,-100.00,South,170,6.0,8.0,34,0.00,,,-99.99,,2013-04-08 17:03:00,
2013-04-08 13:12:00,70.0,39.0,-100.00,SE,135,4.0,6.0,33,0.00,,,-99.99,,2013-04-08 17:12:00,
2013-04-08 13:22:00,70.0,39.0,-100.00,SE,135,4.0,6.0,33,0.00,,,-99.99,,2013-04-08 17:22:00,
2013-04-08 13:32:00,70.0,39.0,-100.00,South,170,1.0,3.0,32,0.00,,,-99.99,,2013-04-08 17:32:00,
2013-04-08 13:43:00,71.0,39.0,-100.00,SSE,165,6.0,7.0,32,0.00,,,-99.99,,2013-04-08 17:43:00,
2013-04-08 13:52:00,71.0,39.0,-100.00,SSE,165,6.0,7.0,32,0.00,,,-99.99,,2013-04-08 17:52:00,
2013-04-08 14:02:00,73.0,40.0,-100.00,SE,140,2.0,4.0,31,0.00,,,-99.99,,2013-04-08 18:02:00,
2013-04-08 14:12:00,72.0,39.0,-100.00,South,185,7.0,11.0,30,0.00,,,-99.99,,2013-04-08 18:12:00,
2013-04-08 14:23:00,72.0,39.0,-100.00,South,185,7.0,11.0,30,0.00,,,-99.99,,2013-04-08 18:23:00,
2013-04-08 14:32:00,73.0,39.0,-100.00,South,185,5.0,9.0,30,0.00,,,-99.99,,2013-04-08 18:32:00,
2013-04-08 14:42:00,73.0,39.0,-100.00,SSE,165,3.0,6.0,29,0.00,,,-99.99,,2013-04-08 18:42:00,
2013-04-08 14:52:00,73.0,39.0,-100.00,SSE,165,3.0,6.0,29,0.00,,,-99.99,,2013-04-08 18:52:00,
2013-04-08 15:03:00,73.0,39.0,-100.00,SSE,155,4.0,6.0,29,0.00,,,-99.99,,2013-04-08 19:03:00,
2013-04-08 15:12:00,74.0,40.0,-100.00,South,185,5.0,7.0,29,0.00,,,-99.99,,2013-04-08 19:12:00,
2013-04-08 15:23:00,74.0,40.0,-100.00,South,185,5.0,7.0,29,0.00,,,-99.99,,2013-04-08 19:23:00,
2013-04-08 15:33:00,75.0,39.0,-100.00,SE,140,2.0,4.0,28,0.00,,,-99.99,,2013-04-08 19:33:00,
2013-04-08 15:43:00,75.0,40.0,-100.00,SSE,150,1.0,3.0,28,0.00,,,-99.99,,2013-04-08 19:43:00,
2013-04-08 15:52:00,75.0,40.0,-100.00,SSE,150,1.0,3.0,28,0.00,,,-99.99,,2013-04-08 19:52:00,
2013-04-08 16:02:00,75.0,40.0,-100.00,SSE,160,4.0,5.0,28,0.00,,,-99.99,,2013-04-08 20:02:00,
2013-04-08 16:12:00,75.0,40.0,-100.00,SE,145,4.0,5.0,28,0.00,,,-99.99,,2013-04-08 20:12:00,
2013-04-08 16:23:00,75.0,40.0,-100.00,SE,145,4.0,5.0,28,0.00,,,-99.99,,2013-04-08 20:23:00,
2013-04-08 16:33:00,76.0,40.0,-100.00,SSW,210,2.0,3.0,27,0.00,,,-99.99,,2013-04-08 20:33:00,
2013-04-08 16:43:00,76.0,40.0,-100.00,SSE,160,5.0,6.0,27,0.00,,,-99.99,,2013-04-08 20:43:00,
2013-04-08 16:52:00,76.0,40.0,-100.00,SSE,160,5.0,6.0,27,0.00,,,-99.99,,2013-04-08 20:52:00,
2013-04-08 17:02:00,76.0,40.0,-100.00,ESE,120,3.0,6.0,27,0.00,,,-99.99,,2013-04-08 21:02:00,
2013-04-08 17:12:00,75.0,39.0,-100.00,South,175,5.0,12.0,27,0.00,,,-99.99,,2013-04-08 21:12:00,
2013-04-08 17:22:00,75.0,39.0,-100.00,South,175,5.0,12.0,27,0.00,,,-99.99,,2013-04-08 21:22:00,
2013-04-08 17:33:00,75.0,39.0,-100.00,South,180,8.0,14.0,27,0.00,,,-99.99,,2013-04-08 21:33:00,
2013-04-08 17:43:00,75.0,39.0,-100.00,ESE,115,4.0,6.0,27,0.00,,,-99.99,,2013-04-08 21:43:00,
2013-04-08 17:52:00,75.0,39.0,-100.00,ESE,115,4.0,6.0,27,0.00,,,-99.99,,2013-04-08 21:52:00,
2013-04-08 18:03:00,75.0,39.0,-100.00,SSE,155,3.0,5.0,27,0.00,,,-99.99,,2013-04-08 22:03:00,
2013-04-08 18:13:00,74.0,38.0,-100.00,SSE,165,2.0,4.0,27,0.00,,,-99.99,,2013-04-08 22:13:00,
2013-04-08 18:23:00,74.0,38.0,-100.00,SSE,165,2.0,4.0,27,0.00,,,-99.99,,2013-04-08 22:23:00,
2013-04-08 18:32:00,74.0,39.0,-100.00,SE,140,1.0,1.0,28,0.00,,,-99.99,,2013-04-08 22:32:00,
2013-04-08 18:43:00,73.0,38.0,-100.00,SSW,210,0.0,0.0,28,0.00,,,-99.99,,2013-04-08 22:43:00,
2013-04-08 18:52:00,73.0,38.0,-100.00,SSW,210,0.0,0.0,28,0.00,,,-99.99,,2013-04-08 22:52:00,
2013-04-08 19:02:00,73.0,39.0,-100.00,SW,215,0.0,1.0,29,0.00,,,-99.99,,2013-04-08 23:02:00,
2013-04-08 19:12:00,73.0,39.0,-100.00,West,265,2.0,2.0,29,0.00,,,-99.99,,2013-04-08 23:12:00,
2013-04-08 19:22:00,73.0,39.0,-100.00,West,265,2.0,2.0,29,0.00,,,-99.99,,2013-04-08 23:22:00,
2013-04-08 19:32:00,72.0,39.0,-100.00,West,270,0.0,2.0,30,0.00,,,-99.99,,2013-04-08 23:32:00,
2013-04-08 19:43:00,71.0,39.0,-100.00,WSW,255,0.0,0.0,31,0.00,,,-99.99,,2013-04-08 23:43:00,
2013-04-08 19:52:00,71.0,39.0,-100.00,WSW,255,0.0,0.0,31,0.00,,,-99.99,,2013-04-08 23:52:00,
2013-04-08 20:02:00,71.0,39.0,-100.00,West,260,1.0,1.0,32,0.00,,,-99.99,,2013-04-09 00:02:00,
2013-04-08 20:12:00,70.0,39.0,-100.00,West,270,0.0,1.0,32,0.00,,,-99.99,,2013-04-09 00:12:00,
2013-04-08 20:22:00,70.0,39.0,-100.00,West,270,0.0,1.0,32,0.00,,,-99.99,,2013-04-09 00:22:00,
2013-04-08 20:32:00,70.0,39.0,-100.00,West,265,2.0,2.0,33,0.00,,,-99.99,,2013-04-09 00:32:00,
2013-04-08 20:42:00,69.0,39.0,-100.00,WSW,250,0.0,0.0,33,0.00,,,-99.99,,2013-04-09 00:42:00,
2013-04-08 20:52:00,69.0,39.0,-100.00,WSW,250,0.0,0.0,33,0.00,,,-99.99,,2013-04-09 00:52:00,
2013-04-08 21:03:00,69.0,39.0,-100.00,SW,235,0.0,0.0,34,0.00,,,-99.99,,2013-04-09 01:03:00,
2013-04-08 21:12:00,68.0,40.0,-100.00,WSW,250,1.0,2.0,35,0.00,,,-99.99,,2013-04-09 01:12:00,
2013-04-08 21:22:00,68.0,40.0,-100.00,WSW,250,1.0,2.0,35,0.00,,,-99.99,,2013-04-09 01:22:00,
2013-04-08 21:34:00,68.0,39.0,-100.00,West,275,1.0,1.0,35,0.00,,,-99.99,,2013-04-09 01:34:00,
2013-04-08 21:42:00,68.0,39.0,-100.00,WSW,250,1.0,2.0,35,0.00,,,-99.99,,2013-04-09 01:42:00,
2013-04-08 21:52:00,68.0,39.0,-100.00,WSW,250,1.0,2.0,35,0.00,,,-99.99,,2013-04-09 01:52:00,
2013-04-08 22:02:00,68.0,40.0,-100.00,SE,145,1.0,1.0,36,0.00,,,-99.99,,2013-04-09 02:02:00,
2013-04-08 22:13:00,68.0,40.0,-100.00,SSW,205,1.0,2.0,36,0.00,,,-99.99,,2013-04-09 02:13:00,
2013-04-08 22:22:00,68.0,40.0,-100.00,SSW,205,1.0,2.0,36,0.00,,,-99.99,,2013-04-09 02:22:00,
2013-04-08 22:33:00,68.0,39.0,-100.00,SSE,150,1.0,1.0,36,0.00,,,-99.99,,2013-04-09 02:33:00,
2013-04-08 22:43:00,67.0,40.0,-100.00,South,190,1.0,1.0,38,0.00,,,-99.99,,2013-04-09 02:43:00,
2013-04-08 22:52:00,67.0,40.0,-100.00,South,190,1.0,1.0,38,0.00,,,-99.99,,2013-04-09 02:52:00,
2013-04-08 23:02:00,66.0,40.0,-100.00,SSW,195,0.0,1.0,39,0.00,,,-99.99,,2013-04-09 03:02:00,
2013-04-08 23:12:00,66.0,40.0,-100.00,SSE,165,1.0,2.0,39,0.00,,,-99.99,,2013-04-09 03:12:00,
2013-04-08 23:22:00,66.0,40.0,-100.00,SSE,165,1.0,2.0,39,0.00,,,-99.99,,2013-04-09 03:22:00,
2013-04-08 23:33:00,67.0,41.0,-100.00,SSE,160,1.0,2.0,39,0.00,,,-99.99,,2013-04-09 03:33:00,
2013-04-08 23:43:00,66.0,40.0,-100.00,South,190,1.0,2.0,39,0.00,,,-99.99,,2013-04-09 03:43:00,
2013-04-08 23:52:00,66.0,40.0,-100.00,South,190,1.0,2.0,39,0.00,,,-99.99,,2013-04-09 03:52:00,